Location: Armstrong Village
(14.3346°N, 120.9854°E)
Time: 12:24:16
(UTC+00:00)

GEOS 3 Rocket - Pass Details

Date: 13 January 2026
Orbit: 768 x 845 km, 115.0° (Epoch: 16 February)

Event Time Altitude Azimuth Distance (km) Brightness Sun altitude
Exits shadow 11:02:27 28° 97° (E) 1,504 4.5 -18.4°
Maximum altitude 11:03:25 30° 117° (ESE) 1,442 4.5 -18.6°
Drops below altitude 10° 11:07:59 10° 177° (S) 2,414 6.2 -19.6°
Sets 11:10:31 0° 187° (S) 3,333 7.1 -20.2°
